| time (UTC) | temp F | wind direction | speed knots | gust knots | rain 1hr in | rain 24hr in | rain mn in | humidity % | barometer mb |
| 20260906121552 | 68 | 360 | 1.7 | 3.5 | 0.00 | 0.00 | 0.00 | 94 | 1018.8 |
| 20260906120107 | 68 | 360 | 0.0 | 2.6 | 0.00 | 0.00 | 0.00 | 95 | 1018.4 |
| 20260906114624 | 67 | 360 | 0.9 | 2.6 | 0.00 | 0.00 | 0.00 | 95 | 1018.3 |
| 20260906113058 | 67 | 360 | 1.7 | 3.5 | 0.00 | 0.00 | 0.00 | 94 | 1018.0 |
| 20260906111625 | 67 | 0 | 0.9 | 4.3 | 0.00 | 0.00 | 0.00 | 94 | 1017.6 |
| 20260906110057 | 67 | 360 | 0.9 | 4.3 | 0.00 | 0.00 | 0.00 | 94 | 1017.7 |
| 20260906104559 | 67 | 360 | 1.7 | 5.2 | 0.00 | 0.00 | 0.00 | 94 | 1017.7 |
| 20260906103059 | 67 | 360 | 0.0 | 2.6 | 0.00 | 0.00 | 0.00 | 95 | 1017.3 |
| 20260906101557 | 67 | 360 | 0.9 | 5.2 | 0.00 | 0.00 | 0.00 | 95 | 1017.3 |
| 20260906100056 | 67 | 360 | 1.7 | 5.2 | 0.00 | 0.00 | 0.00 | 94 | 1017.3 |
| 20260906094553 | 67 | 360 | 1.7 | 4.3 | 0.00 | 0.00 | 0.00 | 94 | 1017.2 |
| 20260906093105 | 67 | 360 | 1.7 | 5.2 | 0.00 | 0.00 | 0.00 | 94 | 1017.2 |
| 20260906091558 | 68 | 360 | 0.9 | 4.3 | 0.00 | 0.00 | 0.00 | 94 | 1017.1 |
| 20260906090112 | 68 | 20 | 1.7 | 4.3 | 0.00 | 0.00 | 0.00 | 93 | 1017.1 |
| 20260906084611 | 69 | 360 | 1.7 | 5.2 | 0.00 | 0.00 | 0.00 | 93 | 1017.0 |
| 20260906083057 | 69 | 360 | 1.7 | 5.2 | 0.00 | 0.00 | 0.00 | 93 | 1017.0 |
| 20260906081601 | 69 | 360 | 0.9 | 3.5 | 0.00 | 0.00 | 0.00 | 93 | 1017.2 |
| 20260906080058 | 69 | 360 | 0.9 | 3.5 | 0.00 | 0.00 | 0.00 | 93 | 1017.2 |
| 20260906074603 | 69 | 0 | 0.9 | 2.6 | 0.00 | 0.00 | 0.00 | 92 | 1017.2 |
| 20260906073108 | 70 | 360 | 0.0 | 3.5 | 0.00 | 0.00 | 0.00 | 92 | 1017.1 |
| 20260906071600 | 70 | 360 | 0.9 | 2.6 | 0.00 | 0.00 | 0.00 | 91 | 1017.2 |
| 20260906070135 | 70 | 360 | 0.9 | 3.5 | 0.00 | 0.00 | 0.00 | 90 | 1017.4 |
| 20260906064559 | 71 | 0 | 0.9 | 3.5 | 0.00 | 0.00 | 0.00 | 90 | 1017.2 |
| 20260906063058 | 71 | 360 | 0.0 | 3.5 | 0.00 | 0.00 | 0.00 | 88 | 1017.2 |
| 20260906061634 | 72 | 360 | 1.7 | 7.0 | 0.00 | 0.00 | 0.00 | 88 | 1017.3 |
| 20260906060056 | 72 | 360 | 0.9 | 7.0 | 0.00 | 0.00 | 0.00 | 88 | 1017.2 |
| 20260906054601 | 72 | 360 | 0.9 | 7.0 | 0.00 | 0.00 | 0.00 | 87 | 1017.2 |
| 20260906053057 | 72 | 360 | 2.6 | 7.0 | 0.00 | 0.00 | 0.00 | 87 | 1017.2 |
| 20260906051600 | 72 | 360 | 0.9 | 10.4 | 0.00 | 0.00 | 0.00 | 87 | 1017.1 |
| 20260906050115 | 73 | 360 | 2.6 | 7.8 | 0.00 | 0.00 | 0.00 | 86 | 1016.9 |
| 20260906044556 | 73 | 360 | 0.9 | 7.8 | 0.00 | 0.00 | 0.00 | 86 | 1017.0 |
| 20260906043106 | 73 | 360 | 1.7 | 5.2 | 0.00 | 0.00 | 0.00 | 87 | 1016.7 |
| 20260906041558 | 72 | 360 | 1.7 | 9.6 | 0.00 | 0.00 | 0.00 | 88 | 1016.4 |
| 20260906040114 | 72 | 360 | 1.7 | 7.8 | 0.00 | 0.00 | 0.00 | 88 | 1016.4 |
| 20260906034555 | 72 | 360 | 3.5 | 7.8 | 0.00 | 0.00 | 0.00 | 87 | 1016.2 |
| 20260906033101 | 72 | 360 | 1.7 | 9.6 | 0.00 | 0.00 | 0.00 | 86 | 1016.2 |
| 20260906031606 | 73 | 360 | 1.7 | 8.7 | 0.00 | 0.00 | 0.00 | 86 | 1016.1 |
| 20260906030107 | 73 | 360 | 2.6 | 8.7 | 0.00 | 0.00 | 0.00 | 85 | 1016.1 |
| 20260906024602 | 74 | 360 | 3.5 | 10.4 | 0.00 | 0.00 | 0.00 | 85 | 1016.0 |
| 20260906023122 | 74 | 360 | 3.5 | 10.4 | 0.00 | 0.00 | 0.00 | 85 | 1016.1 |
| 20260906021557 | 73 | 360 | 3.5 | 11.3 | 0.00 | 0.00 | 0.00 | 85 | 1016.1 |
| 20260906020104 | 73 | 360 | 3.5 | 10.4 | 0.00 | 0.00 | 0.00 | 84 | 1015.8 |
| 20260906014623 | 74 | 360 | 3.5 | 10.4 | 0.00 | 0.00 | 0.00 | 83 | 1016.0 |
| 20260906013059 | 74 | 360 | 2.6 | 10.4 | 0.00 | 0.00 | 0.00 | 83 | 1016.2 |
| 20260906011559 | 74 | 360 | 3.5 | 12.2 | 0.00 | 0.00 | 0.00 | 83 | 1016.0 |
| 20260906010107 | 74 | 360 | 2.6 | 10.4 | 0.00 | 0.00 | 0.00 | 84 | 1015.9 |
| 20260906004611 | 74 | 360 | 3.5 | 10.4 | 0.00 | 0.00 | 0.00 | 84 | 1016.0 |
| 20260906003108 | 74 | 360 | 4.3 | 13.0 | 0.00 | 0.00 | 0.00 | 84 | 1015.6 |
| 20260906001558 | 75 | 360 | 4.3 | 13.0 | 0.00 | 0.00 | 0.00 | 83 | 1015.5 |
| 20260906000111 | 77 | 360 | 5.2 | 12.2 | 0.00 | 0.00 | 0.00 | 81 | 1015.4 |
| 20260905234603 | 78 | 360 | 5.2 | 13.9 | 0.00 | 0.00 | 0.00 | 80 | 1015.1 |
| 20260905233111 | 79 | 360 | 3.5 | 12.2 | 0.00 | 0.00 | 0.00 | 79 | 1015.0 |
| 20260905231558 | 80 | 360 | 7.8 | 15.6 | 0.00 | 0.00 | 0.00 | 77 | 1014.9 |
| 20260905230109 | 81 | 360 | 3.5 | 12.2 | 0.00 | 0.00 | 0.00 | 77 | 1014.8 |
| 20260905224606 | 82 | 360 | 3.5 | 12.2 | 0.00 | 0.00 | 0.00 | 75 | 1014.5 |
| 20260905223059 | 83 | 360 | 5.2 | 12.2 | 0.00 | 0.00 | 0.00 | 71 | 1014.3 |
| 20260905221558 | 84 | 360 | 3.5 | 9.6 | 0.00 | 0.00 | 0.00 | 70 | 1014.3 |
| 20260905220053 | 84 | 360 | 4.3 | 9.6 | 0.00 | 0.00 | 0.00 | 70 | 1014.4 |
| 20260905214600 | 85 | 360 | 1.7 | 7.8 | 0.00 | 0.00 | 0.00 | 69 | 1014.7 |
| 20260905213055 | 84 | 355 | 5.2 | 9.6 | 0.00 | 0.00 | 0.00 | 70 | 1014.3 |
| 20260905211558 | 83 | 0 | 1.7 | 8.7 | 0.00 | 0.00 | 0.00 | 73 | 1014.5 |
| 20260905210056 | 84 | 360 | 1.7 | 7.0 | 0.00 | 0.00 | 0.00 | 72 | 1014.6 |
| 20260905204554 | 82 | 360 | 2.6 | 8.7 | 0.00 | 0.00 | 0.00 | 75 | 1014.8 |
| 20260905203101 | 82 | 17 | 3.5 | 8.7 | 0.00 | 0.00 | 0.00 | 74 | 1014.7 |
| 20260905201600 | 81 | 13 | 2.6 | 6.1 | 0.00 | 0.00 | 0.00 | 78 | 1014.9 |
| 20260905200059 | 80 | 360 | 2.6 | 7.8 | 0.00 | 0.00 | 0.00 | 79 | 1014.9 |
| 20260905194552 | 80 | 360 | 3.5 | 9.6 | 0.00 | 0.00 | 0.00 | 79 | 1014.9 |
| 20260905193056 | 80 | 360 | 3.5 | 8.7 | 0.00 | 0.00 | 0.00 | 80 | 1014.9 |
| 20260905191557 | 80 | 360 | 3.5 | 9.6 | 0.00 | 0.00 | 0.00 | 79 | 1015.2 |
| 20260905184606 | 82 | 19 | 2.6 | 9.6 | 0.00 | 0.00 | 0.00 | 76 | 1015.0 |
| 20260905183124 | 83 | 360 | 3.5 | 9.6 | 0.00 | 0.00 | 0.00 | 75 | 1015.1 |
| 20260905181604 | 84 | 360 | 2.6 | 10.4 | 0.00 | 0.00 | 0.00 | 73 | 1015.2 |
| 20260905180106 | 84 | 49 | 2.6 | 10.4 | 0.00 | 0.00 | 0.00 | 75 | 1015.0 |
| 20260905174605 | 83 | 360 | 4.3 | 12.2 | 0.00 | 0.00 | 0.00 | 77 | 1014.9 |
| 20260905173100 | 83 | 360 | 5.2 | 9.6 | 0.00 | 0.00 | 0.00 | 76 | 1014.7 |
| 20260905171603 | 84 | 360 | 1.7 | 10.4 | 0.00 | 0.00 | 0.00 | 76 | 1015.0 |
| 20260905170055 | 84 | 360 | 4.3 | 8.7 | 0.00 | 0.00 | 0.00 | 75 | 1015.0 |
| 20260905164607 | 85 | 360 | 2.6 | 8.7 | 0.00 | 0.00 | 0.00 | 75 | 1014.8 |
| 20260905163106 | 84 | 360 | 3.5 | 7.8 | 0.00 | 0.00 | 0.00 | 75 | 1015.0 |
| 20260905161555 | 84 | 360 | 2.6 | 5.2 | 0.00 | 0.00 | 0.00 | 76 | 1015.1 |
| 20260905160123 | 82 | 360 | 3.5 | 7.8 | 0.00 | 0.00 | 0.00 | 78 | 1015.2 |
| 20260905154600 | 81 | 360 | 2.6 | 8.7 | 0.00 | 0.00 | 0.00 | 80 | 1015.0 |
| 20260905153105 | 82 | 360 | 3.5 | 7.8 | 0.00 | 0.00 | 0.00 | 78 | 1014.9 |
| 20260905151610 | 81 | 360 | 2.6 | 9.6 | 0.00 | 0.00 | 0.00 | 80 | 1014.9 |
| 20260905144558 | 80 | 360 | 3.5 | 8.7 | 0.00 | 0.00 | 0.00 | 83 | 1014.3 |
| 20260905143056 | 78 | 360 | 2.6 | 10.4 | 0.00 | 0.00 | 0.00 | 85 | 1014.6 |
| 20260905141557 | 76 | 360 | 2.6 | 9.6 | 0.00 | 0.00 | 0.00 | 89 | 1014.5 |
| 20260905140109 | 75 | 360 | 2.6 | 10.4 | 0.00 | 0.00 | 0.00 | 91 | 1014.3 |
| 20260905134557 | 75 | 360 | 2.6 | 7.8 | 0.00 | 0.00 | 0.00 | 92 | 1014.3 |
| 20260905133100 | 75 | 360 | 6.1 | 12.2 | 0.00 | 0.00 | 0.00 | 91 | 1014.4 |
| 20260905131611 | 76 | 360 | 2.6 | 7.0 | 0.00 | 0.00 | 0.00 | 91 | 1014.6 |
| 20260905130110 | 77 | 360 | 1.7 | 5.2 | 0.00 | 0.00 | 0.00 | 90 | 1014.0 |
| 20260905124556 | 76 | 360 | 1.7 | 5.2 | 0.00 | 0.00 | 0.00 | 91 | 1013.7 |
| 20260905123107 | 76 | 360 | 2.6 | 7.0 | 0.00 | 0.00 | 0.00 | 91 | 1013.7 |